Location: Aldenham
(51.6667°N, 0.3500°W)
Time: 08:11:24
(UTC+00:00)

Vanguard 1 Rocket - All Passes

Search period start: 17 February 2026 00:00
Search period end: 27 February 2026 00:00
Orbit: 652 x 4215 km, 34.3° (Epoch: 15 February)

Date Brightness Start Highest point End Pass type
(mag) Time Alt. Az. Time Alt. Az. Time Alt. Az.
17 Feb - 13:08:49 10° SSW 13:17:17 28° SSE 13:30:58 10° E daylight
17 Feb - 15:30:51 10° WSW 15:42:55 42° S 16:03:10 10° ESE daylight
17 Feb - 17:55:42 10° WSW 18:10:48 37° SSW 18:32:17 10° SE visible
17 Feb - 20:24:57 10° W 20:38:36 20° SW 20:54:14 10° S visible
18 Feb - 11:59:25 10° S 12:05:23 18° SE 12:13:46 10° E daylight
18 Feb - 14:19:29 10° SW 14:29:34 37° SSE 14:46:54 10° ESE daylight
18 Feb - 16:43:06 10° WSW 16:56:30 41° S 17:17:38 10° SE daylight
18 Feb - 19:09:46 10° W 19:24:31 27° SSW 19:43:21 10° SSE visible
19 Feb - 13:08:45 10° SSW 13:16:55 30° SSE 13:30:26 10° ESE daylight
19 Feb - 15:31:07 10° WSW 15:42:38 41° S 16:02:05 10° ESE daylight
19 Feb - 17:56:11 10° WSW 18:10:17 33° SSW 18:30:25 10° SSE visible
19 Feb - 20:26:58 10° WSW 20:37:43 16° SW 20:49:55 10° SSW visible
20 Feb - 11:58:56 10° S 12:04:58 20° SE 12:13:46 10° ESE daylight
20 Feb - 14:19:42 10° SW 14:29:19 37° SSE 14:46:03 10° ESE daylight
20 Feb - 16:43:30 10° WSW 16:56:09 37° SSW 17:16:07 10° SE daylight
20 Feb - 19:10:47 10° WSW 19:23:51 23° SW 19:40:26 10° S visible
21 Feb - 10:53:01 10° SE 10:53:32 10° SE 10:54:03 10° SE daylight
21 Feb - 13:08:49 10° SW 13:16:40 31° SSE 13:29:51 10° ESE daylight
21 Feb - 15:31:29 10° WSW 15:42:24 38° S 16:00:52 10° SE daylight
21 Feb - 17:56:50 10° WSW 18:09:49 29° SSW 18:28:12 10° SSE visible
21 Feb - 20:31:21 10° WSW 20:36:56 11° SW 20:42:55 10° SSW visible
22 Feb - 11:58:41 10° SSW 12:04:39 21° SE 12:13:36 10° ESE daylight
22 Feb - 14:20:00 10° SW 14:29:10 36° S 14:45:06 10° ESE daylight
22 Feb - 16:44:02 10° WSW 16:55:52 33° SSW 17:14:22 10° SE daylight
22 Feb - 19:12:22 10° WSW 19:23:14 18° SW 19:36:41 10° S visible
23 Feb - 10:50:26 10° SSE 10:53:09 12° SE 10:56:21 10° ESE daylight
23 Feb - 13:09:01 10° SW 13:16:31 31° SSE 13:29:12 10° ESE daylight
23 Feb - 15:31:56 10° WSW 15:42:14 35° S 15:59:30 10° SE daylight
23 Feb - 17:57:47 10° WSW 18:09:24 24° SSW 18:25:31 10° SSE visible
24 Feb - 11:58:39 10° SSW 12:04:28 23° SSE 12:13:20 10° ESE daylight
24 Feb - 14:20:23 10° WSW 14:29:05 34° S 14:44:04 10° ESE daylight
24 Feb - 16:44:44 10° WSW 16:55:37 29° SSW 17:12:19 10° SSE daylight
24 Feb - 19:15:14 10° WSW 19:22:42 13° SW 19:31:25 10° SSW visible
25 Feb - 10:49:33 10° S 10:52:53 14° SE 10:57:04 10° ESE daylight
25 Feb - 13:09:19 10° SW 13:16:28 30° SSE 13:28:29 10° ESE daylight
25 Feb - 15:32:31 10° WSW 15:42:08 31° S 15:57:56 10° SE daylight
25 Feb - 17:59:12 10° WSW 18:09:02 19° SSW 18:22:10 10° S visible
26 Feb - 11:58:45 10° SSW 12:04:22 23° SSE 12:12:59 10° ESE daylight
26 Feb - 14:20:53 10° WSW 14:29:04 32° S 14:42:55 10° SE daylight
26 Feb - 16:45:40 10° WSW 16:55:27 24° SSW 17:09:53 10° SSE daylight
